This is the latest recevied weather packets stored in our database for station/object WB6ANP. If no packets are shown the sender has not sent any weather packets the latest 10 day(s).
| Time | Temp. | Humidity | Pressure | Rain* | Wind** | Luminosity | Snow |
|---|---|---|---|---|---|---|---|
| 1777851128 | 26.67° C | 30% | 1015.3 hPa | 0 mm | - | 202 W/m² | - |
| 1777850825 | 26.11° C | 29% | 1015.6 hPa | 0 mm | - | 223 W/m² | - |
| 1777850523 | 26.67° C | 30% | 1015.4 hPa | 0 mm | - | 239 W/m² | - |
| 1777850221 | 26.67° C | 30% | 1015.3 hPa | 0 mm | - | 259 W/m² | - |
| 1777849917 | 26.67° C | 30% | 1015.4 hPa | 0 mm | - | 283 W/m² | - |
| 1777849614 | 26.67° C | 29% | 1015.6 hPa | 0 mm | - | 304 W/m² | - |
| 1777849311 | 27.22° C | 31% | 1015.6 hPa | 0 mm | - | 328 W/m² | - |
| 1777849008 | 26.67° C | 31% | 1015.7 hPa | 0 mm | - | 343 W/m² | - |
| 1777848708 | 26.11° C | 30% | 1015.8 hPa | 0 mm | - | 356 W/m² | - |
| 1777848406 | 26.67° C | 29% | 1015.7 hPa | 0 mm | - | 267 W/m² | - |
| 1777848103 | 26.67° C | 30% | 1015.8 hPa | 0 mm | - | 327 W/m² | - |
| 1777847801 | 26.67° C | 29% | 1015.9 hPa | 0 mm | - | 426 W/m² | - |
| 1777847497 | 26.67° C | 28% | 1015.9 hPa | 0 mm | - | 458 W/m² | - |
| 1777847195 | 26.67° C | 29% | 1016.1 hPa | 0 mm | - | 463 W/m² | - |
| 1777846892 | 26.67° C | 29% | 1015.7 hPa | 0 mm | - | 468 W/m² | - |
| 1777846591 | 26.67° C | 31% | 1015.9 hPa | 0 mm | - | 516 W/m² | - |
| 1777846288 | 26.67° C | 30% | 1016 hPa | 0 mm | - | 451 W/m² | - |
| 1777845984 | 26.67° C | 29% | 1016 hPa | 0 mm | - | 576 W/m² | - |
| 1777845681 | 26.67° C | 32% | 1016.3 hPa | 0 mm | - | 434 W/m² | - |
| 1777845378 | 26.67° C | 31% | 1016.1 hPa | 0 mm | - | 392 W/m² | - |
| 1777845074 | 26.67° C | 31% | 1016.1 hPa | 0 mm | - | 480 W/m² | - |
| 1777844773 | 27.22° C | 30% | 1016.4 hPa | 0 mm | - | 479 W/m² | - |
| 1777844469 | 27.78° C | 29% | 1016.5 hPa | 0 mm | - | 545 W/m² | - |
| 1777844169 | 27.78° C | 29% | 1016.4 hPa | 0 mm | - | 583 W/m² | - |
| 1777843864 | 27.22° C | 30% | 1016.5 hPa | 0 mm | - | 649 W/m² | - |
* Rain latest hour (hover to see other rain measurements)
** Current wind speed in m/s (hover to see current wind gust speed)